Location: Oberwangen
(47.4286°N, 8.9679°E)
Time: 01:03:59
(UTC+00:00)

Cosmos 1725 Rocket - Visible Passes

Search period start: 23 October 2021 00:00
Search period end: 02 November 2021 00:00
Orbit: 961 x 991 km, 82.9° (Epoch: 22 October)

Date Brightness Start Highest point End Pass type
(mag) Time Alt. Az. Time Alt. Az. Time Alt. Az.
23 Oct 6.2 05:20:57 10° NNE 05:26:03 26° ENE 05:31:07 10° ESE visible
23 Oct 5.9 19:04:42 15° NNE 19:04:42 15° NNE 19:05:43 10° NNE visible
23 Oct 6.2 20:49:22 17° NNW 20:49:22 17° NNW 20:50:59 10° N visible
24 Oct 5.7 19:29:50 20° NNE 19:29:50 20° NNE 19:31:33 10° NNE visible
24 Oct 6.5 21:14:28 15° NNW 21:14:28 15° NNW 21:15:57 10° NNW visible
25 Oct 6.7 04:28:09 10° NNE 04:31:10 14° ENE 04:34:11 10° E visible
25 Oct 5.9 18:10:14 12° NE 18:10:14 12° NE 18:10:48 10° NNE visible
25 Oct 5.7 19:54:52 24° N 19:54:52 24° N 19:57:09 10° N visible
25 Oct 6.7 21:39:31 11° NW 21:39:31 11° NW 21:39:58 10° NW visible
26 Oct 6.4 04:52:34 10° NNE 04:57:23 23° ENE 05:02:10 10° ESE visible
26 Oct 5.5 18:35:09 20° NNE 18:35:09 20° NNE 18:37:03 10° NNE visible
26 Oct 5.8 20:19:47 24° NNW 20:19:47 24° NNW 20:22:31 10° N visible
27 Oct 5.6 05:17:38 10° N 05:23:22 38° ENE 05:29:05 10° SE visible
27 Oct 5.0 18:59:49 31° NNE 18:59:49 31° NNE 19:02:57 10° NNE visible
27 Oct 6.1 20:44:26 21° NW 20:44:26 21° NW 20:47:35 10° NNW visible
28 Oct 6.8 04:00:10 10° NE 04:02:27 12° ENE 04:04:43 10° ENE visible
28 Oct 5.3 17:39:22 18° ENE 17:39:22 18° ENE 17:41:58 10° NE visible
28 Oct 4.5 19:16:12 10° SSW 19:23:54 52° NNW 19:28:36 10° N visible
28 Oct 6.5 21:08:25 13° WNW 21:08:59 14° WNW 21:11:59 10° NNW visible
29 Oct 6.5 04:24:12 10° NNE 04:28:42 20° ENE 04:33:10 10° ESE visible
29 Oct 4.5 17:57:25 10° SSE 18:02:54 34° E 18:08:23 10° NNE visible
29 Oct 5.0 19:42:18 10° SW 19:48:10 43° WNW 19:54:03 10° N visible
30 Oct 5.7 04:49:10 10° N 04:54:45 34° ENE 05:00:18 10° SE visible
30 Oct 3.9 18:22:13 10° S 18:28:16 59° E 18:34:21 10° NNE visible
30 Oct 5.8 20:09:03 10° WSW 20:14:06 26° WNW 20:19:12 10° NNW visible
31 Oct 7.0 03:32:40 10° NE 03:33:42 10° NE 03:34:44 10° ENE visible
31 Oct 4.8 05:14:30 10° N 05:20:36 57° ENE 05:26:41 10° SSE visible
31 Oct 5.2 17:05:24 10° ESE 17:09:15 17° E 17:13:06 10° NE visible
31 Oct 3.9 18:47:37 10° S 18:53:50 82° W 19:00:04 10° N visible
31 Oct 6.5 20:36:43 10° W 20:40:16 16° WNW 20:43:50 10° NNW visible
01 Nov 6.6 03:55:53 10° NNE 04:00:01 18° ENE 04:04:07 10° ESE visible
01 Nov 4.6 17:29:10 10° SE 17:34:25 30° E 17:39:41 10° NNE visible
01 Nov 4.8 19:13:35 10° SSW 19:19:33 49° WNW 19:25:33 10° N visible
